DW2213 Weather Reports


time (UTC)temp
C
wind
direction
speed
KPH
gust
KPH
rain 1hr
cm
rain 24hr
cm
rain mn
cm
humidity
%
barometer
mb
20260904204804 26 294 0.0 0.0 0.00 0.00 0.00 84 1014.7
20260904203804 27 296 0.0 0.0 0.00 0.00 0.00 83 1014.6
20260904203304 27 337 0.0 0.0 0.00 0.00 0.00 83 1014.6
20260904202804 27 337 0.0 0.0 0.00 0.00 0.00 83 1014.5
20260904201804 27 337 0.0 0.0 0.00 0.00 0.00 83 1014.5
20260904201304 27 336 0.0 0.0 0.00 0.00 0.00 83 1014.5
20260904200804 27 337 0.0 0.0 0.00 0.00 0.00 83 1014.5
20260904200304 27 337 0.0 0.0 0.00 0.00 0.00 83 1014.4
20260904195804 27 337 0.0 0.0 0.00 0.00 0.00 83 1014.4
20260904194803 27 339 0.0 0.0 0.00 0.00 0.00 82 1014.3
20260904194303 27 339 0.0 0.0 0.00 0.00 0.00 82 1014.2
20260904193803 27 338 0.0 0.0 0.00 0.00 0.00 82 1014.2
20260904193304 27 338 0.0 0.0 0.00 0.00 0.00 82 1014.2
20260904192804 27 339 0.0 3.2 0.00 0.00 0.00 81 1014.0
20260904192306 27 338 1.6 4.8 0.00 0.00 0.00 81 1014.0
20260904191303 27 329 0.0 3.2 0.00 0.00 0.00 81 1013.9
20260904190304 27 324 0.0 3.2 0.00 0.00 0.00 80 1013.7
20260904185804 27 333 0.0 4.8 0.00 0.00 0.00 80 1013.7
20260904184304 28 340 0.0 4.8 0.00 0.00 0.00 79 1013.6
20260904183304 28 323 0.0 4.8 0.00 0.00 0.00 79 1013.4
20260904182804 28 334 0.0 0.0 0.00 0.00 0.00 79 1013.5
20260904182306 28 336 0.0 4.8 0.00 0.00 0.00 78 1013.4
20260904180804 28 334 0.0 1.6 0.00 0.00 0.00 78 1013.3
20260904180304 28 330 0.0 0.0 0.00 0.00 0.00 78 1013.2
20260904175305 29 330 0.0 4.8 0.00 0.00 0.00 79 1013.2
20260904174804 29 345 1.6 4.8 0.00 0.00 0.00 78 1013.2
20260904174303 29 308 3.2 8.0 0.00 0.00 0.00 78 1013.1
20260904173803 29 42 1.6 8.0 0.00 0.00 0.00 78 1013.1
20260904173304 29 6 1.6 9.7 0.00 0.00 0.00 78 1013.1
20260904172305 30 16 3.2 9.7 0.00 0.00 0.00 77 1013.1
20260904171804 30 61 1.6 9.7 0.00 0.00 0.00 76 1013.0
20260904171303 30 340 3.2 8.0 0.00 0.00 0.00 75 1013.0
20260904170804 31 23 1.6 8.0 0.00 0.00 0.00 73 1013.0
20260904165805 31 326 1.6 4.8 0.00 0.00 0.00 72 1012.9
20260904164805 32 355 3.2 9.7 0.00 0.00 0.00 69 1012.9
20260904164305 32 355 1.6 9.7 0.00 0.00 0.00 67 1012.8
20260904163805 33 51 1.6 9.7 0.00 0.00 0.00 63 1012.8
20260904163305 34 11 1.6 8.0 0.00 0.00 0.00 55 1012.8
20260904162804 35 98 0.0 3.2 0.00 0.00 0.00 45 1012.7
20260904162306 35 98 0.0 3.2 0.00 0.00 0.00 42 1012.9
20260904161805 35 98 0.0 3.2 0.00 0.00 0.00 41 1012.9
20260904161304 35 98 0.0 4.8 0.00 0.00 0.00 41 1012.8
20260904160805 35 121 0.0 0.0 0.00 0.00 0.00 41 1012.8
20260904160305 35 121 0.0 1.6 0.00 0.00 0.00 42 1012.8
20260904155804 35 121 0.0 3.2 0.00 0.00 0.00 43 1012.8
20260904154805 35 126 1.6 8.0 0.00 0.00 0.00 44 1012.8
20260904153805 35 138 1.6 3.2 0.00 0.00 0.00 45 1012.8
20260904153305 35 144 1.6 8.0 0.00 0.00 0.00 46 1012.8
20260904152805 35 144 0.0 1.6 0.00 0.00 0.00 48 1012.8
20260904152306 35 147 0.0 3.2 0.00 0.00 0.00 48 1012.9
20260904151805 35 148 0.0 3.2 0.00 0.00 0.00 50 1012.9
20260904151305 35 147 1.6 4.8 0.00 0.00 0.00 50 1012.9
20260904150305 35 138 3.2 4.8 0.00 0.00 0.00 50 1012.7
20260904145805 35 122 1.6 8.0 0.00 0.00 0.00 49 1012.7
20260904145306 35 129 1.6 4.8 0.00 0.00 0.00 49 1012.8
20260904144805 35 130 1.6 4.8 0.00 0.00 0.00 49 1012.8
20260904143805 35 128 1.6 8.0 0.00 0.00 0.00 51 1012.9
20260904143305 35 107 0.0 8.0 0.00 0.00 0.00 52 1012.9
20260904142306 35 129 1.6 11.3 0.00 0.00 0.00 53 1012.9
20260904141805 35 115 1.6 9.7 0.00 0.00 0.00 53 1012.9
20260904141305 35 151 3.2 8.0 0.00 0.00 0.00 51 1012.9
20260904140805 35 134 1.6 8.0 0.00 0.00 0.00 52 1012.9
20260904135805 35 121 1.6 9.7 0.00 0.00 0.00 52 1013.1
20260904135306 35 117 3.2 9.7 0.00 0.00 0.00 52 1013.2
20260904134805 36 64 1.6 4.8 0.00 0.00 0.00 52 1013.2
20260904134305 36 153 0.0 8.0 0.00 0.00 0.00 52 1013.3
20260904133305 35 137 3.2 9.7 0.00 0.00 0.00 52 1013.5
20260904132805 35 144 3.2 9.7 0.00 0.00 0.00 53 1013.6
20260904132306 35 141 3.2 9.7 0.00 0.00 0.00 53 1013.6
20260904131805 35 142 3.2 8.0 0.00 0.00 0.00 55 1013.6
20260904130805 35 120 0.0 8.0 0.00 0.00 0.00 58 1013.8
20260904130305 35 130 1.6 4.8 0.00 0.00 0.00 58 1013.8
20260904125805 34 101 1.6 4.8 0.00 0.00 0.00 59 1013.9
20260904125305 34 114 1.6 4.8 0.00 0.00 0.00 59 1013.9
20260904124804 34 133 1.6 4.8 0.00 0.00 0.00 59 1014.0
20260904124305 34 130 0.0 1.6 0.00 0.00 0.00 60 1014.0
20260904123805 34 132 0.0 3.2 0.00 0.00 0.00 60 1014.1
20260904123305 33 131 0.0 4.8 0.00 0.00 0.00 62 1014.1
20260904122805 33 116 1.6 8.0 0.00 0.00 0.00 62 1014.1
20260904122306 33 136 1.6 4.8 0.00 0.00 0.00 63 1014.2
20260904121305 33 119 1.6 9.7 0.00 0.00 0.00 65 1014.3
20260904120804 33 129 1.6 4.8 0.00 0.00 0.00 65 1014.3
20260904115805 33 95 0.0 9.7 0.00 0.00 0.00 65 1014.5
20260904115306 33 130 0.0 8.0 0.00 0.00 0.00 65 1014.5
20260904114805 32 135 1.6 9.7 0.00 0.00 0.00 67 1014.5
20260904114305 32 116 1.6 4.8 0.00 0.00 0.00 67 1014.6
20260904113804 32 136 1.6 8.0 0.00 0.00 0.00 66 1014.6
20260904113304 32 104 0.0 9.7 0.00 0.00 0.00 67 1014.6
20260904112804 32 134 1.6 9.7 0.00 0.00 0.00 67 1014.6
20260904112306 32 131 1.6 8.0 0.00 0.00 0.00 67 1014.8
20260904111805 32 128 1.6 8.0 0.00 0.00 0.00 67 1014.9
20260904111305 32 131 1.6 9.7 0.00 0.00 0.00 67 1014.9
20260904110805 32 154 0.0 8.0 0.00 0.00 0.00 68 1014.9
20260904110305 32 123 1.6 9.7 0.00 0.00 0.00 68 1015.0
20260904105805 32 131 1.6 8.0 0.00 0.00 0.00 69 1015.1
20260904105306 31 136 1.6 8.0 0.00 0.00 0.00 69 1015.1
20260904104804 31 134 1.6 9.7 0.00 0.00 0.00 69 1015.2
20260904102805 32 146 0.0 1.6 0.00 0.00 0.00 68 1015.4
20260904101805 31 146 0.0 0.0 0.00 0.00 0.00 69 1015.5
20260904101304 31 127 0.0 0.0 0.00 0.00 0.00 68 1015.5
20260904100804 31 140 0.0 0.0 0.00 0.00 0.00 68 1015.4
20260904100306 31 127 0.0 0.0 0.00 0.00 0.00 68 1015.5
20260904094805 31 144 0.0 1.6 0.00 0.00 0.00 68 1015.6
20260904093805 30 134 0.0 1.6 0.00 0.00 0.00 68 1015.6
20260904093304 30 133 0.0 0.0 0.00 0.00 0.00 70 1015.6
20260904092805 30 133 0.0 0.0 0.00 0.00 0.00 69 1015.6
20260904092306 30 132 0.0 1.6 0.00 0.00 0.00 70 1015.6
20260904091805 30 123 0.0 0.0 0.00 0.00 0.00 69 1015.5
20260904091305 30 123 0.0 0.0 0.00 0.00 0.00 69 1015.6
20260904090805 30 123 0.0 0.0 0.00 0.00 0.00 69 1015.6
20260904090304 30 123 0.0 0.0 0.00 0.00 0.00 70 1015.6
20260904085804 30 122 0.0 0.0 0.00 0.00 0.00 73 1015.6
20260904084804 29 122 0.0 0.0 0.00 0.00 0.00 75 1015.5
20260904084305 29 122 0.0 0.0 0.00 0.00 0.00 75 1015.5
20260904083804 29 122 0.0 0.0 0.00 0.00 0.00 76 1015.4
20260904083305 28 121 0.0 0.0 0.00 0.00 0.00 76 1015.5
20260904082804 28 121 0.0 0.0 0.00 0.00 0.00 77 1015.5
20260904081805 28 121 0.0 0.0 0.00 0.00 0.00 78 1015.4
20260904080804 27 121 0.0 0.0 0.00 0.00 0.00 80 1015.3
20260904080304 27 121 0.0 0.0 0.00 0.00 0.00 81 1015.3
20260904075805 27 121 0.0 0.0 0.00 0.00 0.00 81 1015.3
20260904075306 27 121 0.0 0.0 0.00 0.00 0.00 81 1015.3
20260904074804 27 121 0.0 0.0 0.00 0.00 0.00 82 1015.3
20260904074305 27 121 0.0 0.0 0.00 0.00 0.00 83 1015.3
20260904073804 26 121 0.0 0.0 0.00 0.00 0.00 84 1015.3
20260904073304 26 121 0.0 0.0 0.00 0.00 0.00 84 1015.4
20260904072805 26 121 0.0 0.0 0.00 0.00 0.00 85 1015.4
20260904072306 26 121 0.0 0.0 0.00 0.00 0.00 85 1015.4
20260904071804 26 122 0.0 0.0 0.00 0.00 0.00 86 1015.5
20260904071304 25 122 0.0 0.0 0.00 0.00 0.00 87 1015.6
20260904070804 25 122 0.0 0.0 0.00 0.00 0.00 88 1015.6
20260904070305 25 122 0.0 0.0 0.00 0.00 0.00 89 1015.6
20260904065804 25 113 0.0 0.0 0.00 0.00 0.00 89 1015.6
20260904065306 25 110 0.0 0.0 0.00 0.00 0.00 89 1015.6
20260904064305 24 110 0.0 0.0 0.00 0.00 0.00 90 1015.5
20260904063805 24 110 0.0 0.0 0.00 0.00 0.00 90 1015.5
20260904063304 24 110 0.0 0.0 0.00 0.00 0.00 90 1015.5
20260904062804 24 110 0.0 0.0 0.00 0.00 0.00 90 1015.5
20260904062306 24 110 0.0 0.0 0.00 0.00 0.00 90 1015.5
20260904061805 24 110 0.0 0.0 0.00 0.00 0.00 90 1015.5
20260904061305 24 110 0.0 0.0 0.00 0.00 0.00 90 1015.5
20260904060805 24 110 0.0 0.0 0.00 0.00 0.00 90 1015.5
20260904060304 24 110 0.0 0.0 0.00 0.00 0.00 90 1015.4
20260904053805 24 110 0.0 0.0 0.00 0.00 0.00 90 1015.3
20260904053305 24 110 0.0 0.0 0.00 0.00 0.00 90 1015.3
20260904052307 24 110 0.0 0.0 0.00 0.00 0.00 90 1015.3
20260904051804 24 110 0.0 0.0 0.00 0.00 0.00 91 1015.2
20260904051305 24 110 0.0 0.0 0.00 0.00 0.00 91 1015.3
20260904050804 24 110 0.0 0.0 0.00 0.00 0.00 91 1015.3
20260904045804 24 110 0.0 0.0 0.00 0.00 0.00 91 1015.3
20260904045306 24 110 0.0 0.0 0.00 0.00 0.00 91 1015.4
20260904044804 24 110 0.0 0.0 0.00 0.00 0.00 91 1015.4
20260904044305 24 110 0.0 0.0 0.00 0.00 0.00 91 1015.4
20260904043804 24 110 0.0 0.0 0.00 0.00 0.00 91 1015.4
20260904043304 24 110 0.0 0.0 0.00 0.00 0.00 91 1015.4
20260904042804 24 110 0.0 0.0 0.00 0.00 0.00 91 1015.4
20260904041804 24 110 0.0 0.0 0.00 0.00 0.00 91 1015.4
20260904041305 24 110 0.0 0.0 0.00 0.00 0.00 90 1015.4
20260904040304 24 110 0.0 0.0 0.00 0.00 0.00 90 1015.4
20260904035805 24 110 0.0 0.0 0.00 0.00 0.00 90 1015.4
20260904035306 24 110 0.0 0.0 0.00 0.00 0.00 90 1015.4
20260904034805 24 110 0.0 0.0 0.00 0.00 0.00 90 1015.4
20260904034304 24 110 0.0 0.0 0.00 0.00 0.00 90 1015.5
20260904033804 25 110 0.0 0.0 0.00 0.00 0.00 90 1015.5
20260904032804 25 110 0.0 0.0 0.00 0.00 0.00 90 1015.5
20260904032306 25 110 0.0 0.0 0.00 0.00 0.00 89 1015.5
20260904031804 25 110 0.0 0.0 0.00 0.00 0.00 89 1015.5
20260904030804 25 110 0.0 0.0 0.00 0.00 0.00 89 1015.5
20260904030304 25 110 0.0 0.0 0.00 0.00 0.00 89 1015.6
20260904025804 25 109 0.0 0.0 0.00 0.00 0.00 89 1015.7
20260904025306 25 109 0.0 0.0 0.00 0.00 0.00 89 1015.8
20260904024804 25 109 0.0 0.0 0.00 0.00 0.00 88 1015.8
20260904024305 25 109 0.0 0.0 0.00 0.00 0.00 88 1015.8
20260904023804 25 109 0.0 0.0 0.00 0.00 0.00 88 1015.8
20260904023304 25 109 0.0 0.0 0.00 0.00 0.00 88 1015.8
20260904022804 25 109 0.0 0.0 0.00 0.00 0.00 88 1015.8
20260904021304 25 109 0.0 0.0 0.00 0.00 0.00 89 1015.8
20260904020804 25 109 0.0 0.0 0.00 0.00 0.00 89 1015.8
20260904020305 25 109 0.0 0.0 0.00 0.00 0.00 89 1015.8
20260904015804 25 109 0.0 0.0 0.00 0.00 0.00 88 1015.8
20260904015306 25 109 0.0 0.0 0.00 0.00 0.00 89 1015.9
20260904014804 25 108 0.0 0.0 0.00 0.00 0.00 89 1015.9
20260904014304 25 108 0.0 0.0 0.00 0.00 0.00 89 1015.9
20260904013805 25 108 0.0 0.0 0.00 0.00 0.00 89 1016.0
20260904012306 25 108 0.0 0.0 0.00 0.00 0.00 89 1016.0
20260904011804 25 109 0.0 0.0 0.00 0.00 0.00 89 1016.0
20260904011304 25 108 0.0 0.0 0.00 0.00 0.00 89 1016.1
20260904010804 25 108 0.0 0.0 0.00 0.00 0.00 89 1016.2
20260904010304 25 108 0.0 0.0 0.00 0.00 0.00 89 1016.3
20260904005804 25 108 0.0 0.0 0.00 0.00 0.00 89 1016.3
20260904005306 25 108 0.0 0.0 0.00 0.00 0.00 89 1016.4
20260904004804 25 108 0.0 0.0 0.00 0.00 0.00 89 1016.4
20260904004304 25 108 0.0 0.0 0.00 0.00 0.00 89 1016.5
20260904003804 25 108 0.0 0.0 0.00 0.00 0.00 89 1016.5
20260904003304 25 108 0.0 0.0 0.00 0.00 0.00 90 1016.5
20260904002804 25 108 0.0 0.0 0.00 0.00 0.00 90 1016.5
20260904002306 25 108 0.0 0.0 0.00 0.00 0.00 90 1016.5
20260904001804 25 108 0.0 0.0 0.00 0.00 0.00 90 1016.6
20260904001304 25 108 0.0 0.0 0.00 0.00 0.00 90 1016.6
20260904000804 25 108 0.0 0.0 0.00 0.00 0.00 90 1016.6
20260904000304 25 108 0.0 0.0 0.00 0.00 0.00 90 1016.6
20260903235305 25 108 0.0 0.0 0.00 0.00 0.00 90 1016.6
20260903234805 25 108 0.0 0.0 0.00 0.00 0.00 90 1016.7
20260903233804 26 108 0.0 0.0 0.00 0.00 0.00 89 1016.8
20260903232804 26 108 0.0 0.0 0.00 0.00 0.00 89 1016.9
20260903232306 26 108 0.0 0.0 0.00 0.00 0.00 89 1016.8
20260903231804 26 108 0.0 0.0 0.00 0.00 0.00 89 1016.9
20260903231304 26 108 0.0 0.0 0.00 0.00 0.00 89 1016.9
20260903230304 26 108 0.0 0.0 0.00 0.00 0.00 89 1016.9
20260903225306 26 108 0.0 0.0 0.00 0.00 0.00 89 1016.9
20260903224804 26 108 0.0 0.0 0.00 0.00 0.00 89 1016.9
20260903223804 26 108 0.0 0.0 0.00 0.00 0.00 88 1016.9
20260903223304 26 108 0.0 0.0 0.00 0.00 0.00 89 1016.8
20260903222306 26 108 0.0 0.0 0.00 0.00 0.00 88 1016.9
20260903221804 26 108 0.0 0.0 0.00 0.00 0.00 88 1017.0
20260903221304 27 108 0.0 0.0 0.00 0.00 0.00 88 1017.1
20260903220816 27 108 0.0 0.0 0.00 0.00 0.00 88 1017.1
20260903220305 27 108 0.0 0.0 0.00 0.00 0.00 88 1017.2
20260903215804 27 108 0.0 0.0 0.00 0.00 0.00 88 1017.2
20260903215306 27 108 0.0 0.0 0.00 0.00 0.00 88 1017.2
20260903214804 27 108 0.0 0.0 0.00 0.00 0.00 88 1017.2
20260903214304 27 108 0.0 0.0 0.00 0.00 0.00 88 1017.2
20260903213804 27 108 0.0 0.0 0.00 0.00 0.00 87 1017.1
20260903213304 27 108 0.0 0.0 0.00 0.00 0.00 87 1017.2
20260903212804 27 108 0.0 0.0 0.00 0.00 0.00 87 1017.2
20260903212306 27 108 0.0 1.6 0.00 0.00 0.00 87 1017.2
20260903211804 27 108 0.0 1.6 0.00 0.00 0.00 87 1017.2
20260903211304 27 109 0.0 0.0 0.00 0.00 0.00 87 1017.3
20260903210804 27 108 0.0 0.0 0.00 0.00 0.00 86 1017.2
20260903205804 27 108 0.0 0.0 0.00 0.00 0.00 86 1017.1
20260903205306 27 109 0.0 0.0 0.00 0.00 0.00 86 1017.2